Hourly Data Report for October 15, 2015

All times are specified in Local Standard Time (LST). Add 1 hour to adjust for Daylight Saving Time where and when it is observed.

MONCTON INTL A
NEW BRUNSWICK

46°06'44.000" N
64°40'43.000" W
70.70 m
8103201
71705
YQM

Download Data

Hourly Data (October 2015)
Hourly Data Report for October 15, 2015
Temp Definition
°C
Dew Point Temp Definition
°C
Rel Hum Definition
%
Wind Dir Definition
10's deg

Wind Spd Definition
km/h
Visibility Definition
km
Stn Press Definition
kPa
Hmdx Definition


Wind Chill Definition


Weather Definition


TIME
00:00 Legend Double Dagger 10.6 6.8 77 28 16 24.1 99.47     LegendNANA
01:00 Legend Double Dagger 9.6 5.0 73 28 23 24.1 99.51     LegendNANA
02:00 Legend Double Dagger 8.4 4.1 74 24 15 24.1 99.61     Mostly Cloudy
03:00 Legend Double Dagger 6.8 3.1 77 25 16 24.1 99.63     LegendNANA
04:00 Legend Double Dagger 5.5 2.7 82 26 14 24.1 99.68     LegendNANA
05:00 Legend Double Dagger 5.8 3.0 82 25 14 24.1 99.75     Cloudy
06:00 Legend Double Dagger 4.9 2.8 86 24 15 24.1 99.87     LegendNANA
07:00 Legend Double Dagger 4.0 2.0 87 26 15 24.1 99.87     LegendNANA
08:00 Legend Double Dagger 5.3 2.3 81 26 14 24.1 99.95     Mostly Cloudy
09:00 Legend Double Dagger 5.8 2.1 77 26 18 24.1 99.99     LegendNANA
10:00 Legend Double Dagger 8.0 1.9 65 26 21 24.1 100.03     LegendNANA
11:00 Legend Double Dagger 9.0 0.2 54 26 18 24.1 100.04     Mainly Clear
12:00 Legend Double Dagger 9.9 0.5 52 25 22 24.1 100.01     LegendNANA
13:00 Legend Double Dagger 10.7 0.7 50 25 18 24.1 99.99     LegendNANA
14:00 Legend Double Dagger 11.5 0.3 46 25 22 24.1 99.99     Clear
15:00 Legend Double Dagger 11.3 0.4 47 24 16 24.1 100.01     LegendNANA
16:00 Legend Double Dagger 11.2 0.6 48 24 18 24.1 100.04     LegendNANA
17:00 Legend Double Dagger 10.0 0.6 52 23 16 24.1 100.09     Clear
18:00 Legend Double Dagger 7.5 1.4 65 22 11 24.1 100.17     LegendNANA
19:00 Legend Double Dagger 7.2 1.5 67 20 10 24.1 100.22     LegendNANA
20:00 Legend Double Dagger 6.3 1.8 73 18 9 24.1 100.25     Clear
21:00 Legend Double Dagger 5.0 1.3 77 19 10 24.1 100.28     LegendNANA
22:00 Legend Double Dagger 4.1 2.0 86 20 14 24.1 100.31     LegendNANA
23:00 Legend Double Dagger 4.1 2.0 86 21 14 24.1 100.32     Clear

Notes on Data Quality.

Legend

  • E = Estimated
  • M = Missing
  • NA = Not Available
  • ‡ = Partner data that is not subject to review by the National Climate Archives
Date modified: